Regional Weather Roundup
Issued by NWS

Home | Current Version | Previous Version | Graphics & Text | Print | Product List | Glossary On
Versions: 1 2 3 4 5 6 7 8 9 10 11 12 13 14 15 16 17 18 19 20 21 22 23 24 25 26 27 28 29 30 31 32 33 34 35 36 37 38 39 40 41 42 43 44 45 46 47 48 49 50
000
ASUS43 KOAX 230002
RWRNE

WEATHER ROUNDUP FOR NEBRASKA
NATIONAL WEATHER SERVICE OMAHA NE
700 PM CDT MON MAY 22 2017

NOTES: SATELLITE DATA IS BEING USED TO AUGMENT CLOUD COVER ABOVE
       12000 FEET.
       "FAIR" INDICATES FEW OR NO CLOUDS BELOW 12,000 FEET WITH NO
       SIGNIFICANT WEATHER AND/OR OBSTRUCTIONS TO VISIBILITY.

  * THESE STATIONS DO NOT REPORT WEATHER SUCH AS RAIN...SNOW OR FOG.

NEZ001>004-019>022-054>056-230100-
NEBRASKA PANHANDLE

CITY           SKY/WX    TMP DP  RH WIND       PRES   REMARKS
SCOTTSBLUFF    PTSUNNY   57  38  48 NW25G35   30.11R
6HR MIN TEMP:  52; 6HR MAX TEMP:  59; 6HR PCP:  0.01;

ALLIANCE       HVY RAIN  49  43  80 N12       30.07R
6HR MIN TEMP:  46; 6HR MAX TEMP:  61; 6HR PCP:  0.08;

CHADRON        CLOUDY    49  43  80 NE3       30.11F
6HR MIN TEMP:  45; 6HR MAX TEMP:  61; 6HR PCP:  0.17;

GORDON         CLOUDY    48  43  84 N12       30.07S
6HR MIN TEMP:  46; 6HR MAX TEMP:  60; 6HR PCP:  0.02;

KIMBALL        CLOUDY    48  39  71 NW17G29   30.13S
SIDNEY         CLOUDY    50  40  68 NW20G29   30.09R
6HR MIN TEMP:  48; 6HR MAX TEMP:  62; 6HR PCP:  0.01;

$$

NEZ057>060-069>072-079>082-230100-
SOUTHWEST NEBRASKA

CITY           SKY/WX    TMP DP  RH WIND       PRES   REMARKS
NORTH PLATTE   CLOUDY    59  42  53 NW16G24   29.98R
6HR MIN TEMP:  58; 6HR MAX TEMP:  69; 6HR PCP: TRACE;

IMPERIAL       CLOUDY    54  46  74 NW9       30.03R
6HR MIN TEMP:  53; 6HR MAX TEMP:  71; 6HR PCP:  0.01;

LEXINGTON      CLOUDY    66  41  39 N16       29.92S
MCCOOK         CLOUDY    67  41  38 NW29G39   29.95R
6HR MIN TEMP:  67; 6HR MAX TEMP:  77;

OGALLALA       CLOUDY    57  42  58 N16       30.03S
$$

NEZ005>010-023>029-035>040-094-230100-
NORTH CENTRAL NEBRASKA

CITY           SKY/WX    TMP DP  RH WIND       PRES   REMARKS
VALENTINE      CLOUDY    57  40  52 N17       30.00R
6HR MIN TEMP:  57; 6HR MAX TEMP:  66; 6HR PCP: TRACE;

AINSWORTH      CLOUDY    55  44  68 N22       29.99R
BROKEN BOW     CLOUDY    62  43  49 N18G24    29.93F
6HR MIN TEMP:  61; 6HR MAX TEMP:  71;

O`NEILL        PTSUNNY   60  44  54 N21G28    29.93S
ORD            CLOUDY    59  42  53 N13       29.91F
6HR MIN TEMP:  58; 6HR MAX TEMP:  70;

$$

NEZ041-046>049-061>064-073>077-083>087-230100-
SOUTH CENTRAL NEBRASKA

CITY           SKY/WX    TMP DP  RH WIND       PRES   REMARKS
GRAND ISLAND   SUNNY     68  43  40 N16       29.90R
6HR MIN TEMP:  61; 6HR MAX TEMP:  75; 6HR PCP: TRACE;

AURORA         MOSUNNY   68  44  41 N10       29.90S
HASTINGS       CLOUDY    67  48  50 N12       29.91S
6HR MIN TEMP:  59; 6HR MAX TEMP:  74; 6HR PCP:  0.06;

KEARNEY *      MOSUNNY   68  43  40 N10       29.92S
$$

NEZ011>018-030>034-042>045-230100-
NORTHEAST NEBRASKA

CITY           SKY/WX    TMP DP  RH WIND       PRES   REMARKS
NORFOLK        MOSUNNY   64  39  39 NW7       29.87S
6HR MIN TEMP:  63; 6HR MAX TEMP:  72;

ALBION         PTSUNNY   63  44  49 NW15G22   29.90S
BLAIR          CLOUDY    64  54  68 W7        29.87R
FREMONT        CLOUDY    67  46  46 NW13      29.87S
TEKAMAH        MOSUNNY   68  47  46 NW14      29.86R
6HR MIN TEMP:  67; 6HR MAX TEMP:  75; 6HR PCP: TRACE;

$$

NEZ050>053-065>068-078-088>093-230100-
SOUTHEAST NEBRASKA

CITY           SKY/WX    TMP DP  RH WIND       PRES   REMARKS
LINCOLN        CLOUDY    61  56  83 SW13      29.90R
6HR MIN TEMP:  59; 6HR MAX TEMP:  74; 6HR PCP:  0.17;

OMAHA EPPLEY   CLOUDY    64  52  64 SW6       29.86R
6HR MIN TEMP:  64; 6HR MAX TEMP:  75; 6HR PCP: TRACE;

BEATRICE       RAIN      64  59  83 W6        29.91R
FALLS CITY     PTSUNNY   64  55  72 SW13      29.88S
6HR MIN TEMP:  58; 6HR MAX TEMP:  64; 6HR PCP:  0.12;

NEBRASKA CITY  CLOUDY    65  50  57 SW6       29.89R
$$

NEZ044-045-051>053-067-230100-
OMAHA AREA

CITY           SKY/WX    TMP DP  RH WIND       PRES   REMARKS
OMAHA EPPLEY   CLOUDY    64  52  64 SW6       29.86R
6HR MIN TEMP:  64; 6HR MAX TEMP:  75; 6HR PCP: TRACE;

BLAIR          CLOUDY    64  54  68 W7        29.87R
FREMONT        CLOUDY    67  46  46 NW13      29.87S
OFFUTT AFB     CLOUDY    61  54  78 SW7       29.86S
WAHOO          MOCLDY    67  45  45 NW14      29.87S
$$



USA.gov is the U.S. government's official web portal to all federal, state and local government web resources and services.